Tracking 30143 objects as of 26-Jan-2025
HD Live streaming from Space Station
objects crossing your sky now

COSMOS 2447 (GLONASS)

Track COSMOS 2447 (GLONASS) now!
COSMOS 2447 (GLONASS) is classified as:


NORAD ID: 33466
Int'l Code: 2008-067A
Perigee: 19,115.1 km
Apogee: 19,158.1 km
Inclination: 64.5 °
Period: 675.7 minutes
Semi major axis: 25507 km
RCS: 3.1623 m2 (large)
Launch date: December 25, 2008
Source: Commonwealth of Independent States (former USSR) (CIS)
Launch site: TYURATAM MISSILE AND SPACE COMPLEX (TTMTR)

This is satellite part of Glonass family.
Your satellite tracking list
Your tracking list is empty




NASA's NSSDC Master Catalog

Two Line Element Set (TLE):
1 33466U 08067A   25024.59844975 -.00000015  00000-0  00000+0 0  9993
2 33466  64.5205  86.8770 0008427 258.2281  97.5454  2.13107797124986
Source of the keplerian elements: AFSPC